When you browse on this site, cookies collect data to enhance your experience and personalize the content and advertising you see.
Visit our Privacy Policy to learn more. By continuing to use the site, you agree to this use of cookies and data.
  • In Spain
  • List of Countries
  • For 7 days
  • Water Temperature
  • Weather Map
  • Weather Widgets
  • user-avatar
    Login

    Hourly Weather Roseau

    Today, 29 February, Saturday

    Time Temperature Precipitation Wind Pressure Humidity
    00:00 +27°C° 0 mm 4 mps 762 mmHg 80%
    01:00 +26°C° 0 mm 4 mps 762 mmHg 81%
    02:00 +26°C° 0 mm 4 mps 761 mmHg 81%
    03:00 +26°C° 0 mm 4 mps 761 mmHg 81%
    04:00 +26°C° 0 mm 4 mps 761 mmHg 81%
    05:00 +26°C° 0 mm 4 mps 761 mmHg 81%
    06:00 +27°C° 0 mm 4 mps 762 mmHg 80%
    07:00 +27°C° 0 mm 4 mps 762 mmHg 78%
    08:00 +27°C° 0 mm 4 mps 763 mmHg 76%
    09:00 +28°C° 0 mm 4 mps 763 mmHg 74%
    10:00 +28°C° 0 mm 5 mps 763 mmHg 73%
    11:00 +28°C° 0 mm 5 mps 764 mmHg 71%
    12:00 +28°C° 0 mm 5 mps 763 mmHg 71%
    13:00 +28°C° 0 mm 5 mps 763 mmHg 70%
    14:00 +29°C° 0 mm 5 mps 762 mmHg 70%
    15:00 +28°C° 0.1 mm 5 mps 762 mmHg 71%
    16:00 +28°C° 0.1 mm 5 mps 762 mmHg 73%
    17:00 +28°C° 0.1 mm 5 mps 762 mmHg 74%
    18:00 +27°C° 0 mm 5 mps 762 mmHg 76%
    19:00 +27°C° 0 mm 5 mps 762 mmHg 77%
    20:00 +27°C° 0 mm 5 mps 762 mmHg 78%
    21:00 +27°C° 0 mm 4 mps 762 mmHg 78%
    22:00 +27°C° 0 mm 4 mps 763 mmHg 78%
    23:00 +27°C° 0 mm 4 mps 763 mmHg 79%

    Tomorrow, 1 March, Sunday

    Time Temperature Precipitation Wind Pressure Humidity
    00:00 +27°C° 0 mm 4 mps 762 mmHg 79%
    01:00 +26°C° 0 mm 4 mps 762 mmHg 79%
    02:00 +26°C° 0 mm 4 mps 761 mmHg 80%
    03:00 +26°C° 0 mm 4 mps 761 mmHg 79%
    04:00 +26°C° 0 mm 4 mps 761 mmHg 79%
    05:00 +26°C° 0 mm 4 mps 761 mmHg 78%
    06:00 +26°C° 0.1 mm 4 mps 761 mmHg 79%
    07:00 +27°C° 0.1 mm 4 mps 762 mmHg 79%
    08:00 +27°C° 0.1 mm 4 mps 762 mmHg 80%
    09:00 +27°C° 0.1 mm 4 mps 763 mmHg 76%
    10:00 +28°C° 0.1 mm 4 mps 763 mmHg 71%
    11:00 +28°C° 0.1 mm 3 mps 763 mmHg 67%
    12:00 +28°C° 0 mm 4 mps 763 mmHg 67%
    13:00 +28°C° 0 mm 4 mps 762 mmHg 67%
    14:00 +28°C° 0 mm 4 mps 762 mmHg 67%
    15:00 +28°C° 0 mm 4 mps 761 mmHg 71%
    16:00 +28°C° 0 mm 4 mps 761 mmHg 75%
    17:00 +27°C° 0 mm 4 mps 761 mmHg 79%
    18:00 +27°C° 0.3 mm 4 mps 761 mmHg 80%
    19:00 +27°C° 0.3 mm 5 mps 761 mmHg 82%
    20:00 +27°C° 0.3 mm 5 mps 761 mmHg 83%
    21:00 +27°C° 0.2 mm 5 mps 761 mmHg 82%
    22:00 +27°C° 0.2 mm 5 mps 762 mmHg 81%
    23:00 +27°C° 0.2 mm 5 mps 762 mmHg 80%

    Day after tomorrow, 2 March, Monday

    Time Temperature Precipitation Wind Pressure Humidity
    00:00 +27°C° 0 mm 5 mps 761 mmHg 79%
    01:00 +26°C° 0 mm 5 mps 761 mmHg 78%
    02:00 +26°C° 0 mm 5 mps 761 mmHg 77%
    03:00 +26°C° 0 mm 4 mps 761 mmHg 76%
    04:00 +26°C° 0 mm 4 mps 761 mmHg 76%
    05:00 +26°C° 0 mm 4 mps 761 mmHg 75%
    06:00 +26°C° 0 mm 4 mps 761 mmHg 76%
    07:00 +26°C° 0 mm 4 mps 762 mmHg 76%
    08:00 +27°C° 0 mm 4 mps 762 mmHg 77%
    09:00 +27°C° 0.1 mm 4 mps 762 mmHg 76%
    10:00 +27°C° 0.1 mm 5 mps 762 mmHg 75%
    11:00 +28°C° 0.1 mm 5 mps 763 mmHg 73%
    12:00 +28°C° 0 mm 5 mps 762 mmHg 72%
    13:00 +28°C° 0 mm 5 mps 761 mmHg 71%
    14:00 +28°C° 0 mm 4 mps 761 mmHg 69%
    15:00 +28°C° 0 mm 4 mps 760 mmHg 71%
    16:00 +28°C° 0 mm 4 mps 760 mmHg 73%
    17:00 +27°C° 0 mm 4 mps 760 mmHg 75%
    18:00 +27°C° 0 mm 4 mps 760 mmHg 76%
    19:00 +27°C° 0 mm 4 mps 761 mmHg 76%
    20:00 +26°C° 0 mm 4 mps 761 mmHg 77%
    21:00 +26°C° 0.1 mm 5 mps 761 mmHg 78%
    22:00 +26°C° 0.1 mm 5 mps 761 mmHg 80%
    23:00 +26°C° 0.1 mm 5 mps 761 mmHg 81%

    3 March, Tuesday

    Time Temperature Precipitation Wind Pressure Humidity
    00:00 +26°C° 0.2 mm 5 mps 761 mmHg 82%
    01:00 +26°C° 0.2 mm 4 mps 760 mmHg 82%
    02:00 +26°C° 0.2 mm 4 mps 760 mmHg 83%
    03:00 +26°C° 0.2 mm 4 mps 760 mmHg 83%
    04:00 +26°C° 0.2 mm 4 mps 760 mmHg 84%
    05:00 +26°C° 0.2 mm 4 mps 760 mmHg 84%
    06:00 +26°C° 0.4 mm 5 mps 761 mmHg 83%
    07:00 +27°C° 0.4 mm 5 mps 761 mmHg 82%
    08:00 +27°C° 0.4 mm 6 mps 762 mmHg 81%
    09:00 +27°C° 0.2 mm 6 mps 762 mmHg 79%
    10:00 +28°C° 0.2 mm 6 mps 762 mmHg 78%
    11:00 +28°C° 0.2 mm 6 mps 763 mmHg 76%
    12:00 +28°C° 0 mm 6 mps 762 mmHg 75%
    13:00 +28°C° 0 mm 5 mps 761 mmHg 73%
    14:00 +28°C° 0 mm 5 mps 761 mmHg 72%
    15:00 +28°C° 0 mm 5 mps 761 mmHg 73%
    16:00 +28°C° 0 mm 5 mps 761 mmHg 75%
    17:00 +28°C° 0 mm 5 mps 761 mmHg 76%
    18:00 +27°C° 0 mm 5 mps 761 mmHg 78%
    19:00 +27°C° 0 mm 5 mps 761 mmHg 80%
    20:00 +27°C° 0 mm 5 mps 761 mmHg 82%
    21:00 +27°C° 0 mm 5 mps 761 mmHg 82%
    22:00 +27°C° 0 mm 5 mps 762 mmHg 82%
    23:00 +27°C° 0 mm 5 mps 762 mmHg 82%

    4 March, Wednesday

    Time Temperature Precipitation Wind Pressure Humidity
    00:00 +26°C° 0 mm 5 mps 761 mmHg 82%
    01:00 +26°C° 0 mm 5 mps 761 mmHg 81%
    02:00 +26°C° 0 mm 6 mps 761 mmHg 80%
    03:00 +26°C° 0 mm 6 mps 761 mmHg 81%
    04:00 +26°C° 0 mm 6 mps 761 mmHg 81%
    05:00 +26°C° 0 mm 5 mps 761 mmHg 82%
    06:00 +26°C° 0.1 mm 6 mps 761 mmHg 81%
    07:00 +27°C° 0.1 mm 6 mps 762 mmHg 81%
    08:00 +27°C° 0.1 mm 6 mps 763 mmHg 80%
    09:00 +27°C° 0.1 mm 6 mps 763 mmHg 80%
    10:00 +27°C° 0.1 mm 6 mps 763 mmHg 79%
    11:00 +28°C° 0.1 mm 7 mps 763 mmHg 78%
    12:00 +28°C° 0.2 mm 7 mps 763 mmHg 78%
    13:00 +28°C° 0.2 mm 6 mps 762 mmHg 77%
    14:00 +28°C° 0.2 mm 6 mps 762 mmHg 77%
    15:00 +28°C° 0.2 mm 6 mps 762 mmHg 78%
    16:00 +28°C° 0.2 mm 6 mps 762 mmHg 78%
    17:00 +28°C° 0.2 mm 6 mps 762 mmHg 79%
    18:00 +27°C° 0.1 mm 6 mps 762 mmHg 79%
    19:00 +27°C° 0.1 mm 6 mps 762 mmHg 80%
    20:00 +27°C° 0.1 mm 6 mps 762 mmHg 80%
    21:00 +27°C° 0.1 mm 6 mps 763 mmHg 80%
    22:00 +27°C° 0.1 mm 6 mps 763 mmHg 80%
    23:00 +27°C° 0.1 mm 6 mps 763 mmHg 81%

    5 March, Thursday

    Time Temperature Precipitation Wind Pressure Humidity
    00:00 +27°C° 0.1 mm 6 mps 762 mmHg 80%
    01:00 +27°C° 0.1 mm 6 mps 762 mmHg 80%
    02:00 +27°C° 0.1 mm 6 mps 761 mmHg 80%
    03:00 +27°C° 0.1 mm 6 mps 761 mmHg 81%
    04:00 +27°C° 0.1 mm 6 mps 761 mmHg 81%
    05:00 +27°C° 0.1 mm 6 mps 761 mmHg 81%
    06:00 +27°C° 0.3 mm 6 mps 762 mmHg 80%
    07:00 +27°C° 0.3 mm 7 mps 762 mmHg 79%
    08:00 +27°C° 0.3 mm 7 mps 763 mmHg 78%
    09:00 +28°C° 0.1 mm 7 mps 763 mmHg 77%
    10:00 +28°C° 0.1 mm 7 mps 763 mmHg 77%
    11:00 +28°C° 0.1 mm 7 mps 764 mmHg 76%
    12:00 +28°C° 0.1 mm 6 mps 763 mmHg 76%
    13:00 +28°C° 0.1 mm 6 mps 762 mmHg 76%
    14:00 +28°C° 0.1 mm 6 mps 762 mmHg 75%
    15:00 +28°C° 0.1 mm 5 mps 761 mmHg 76%
    16:00 +28°C° 0.1 mm 5 mps 761 mmHg 77%
    17:00 +27°C° 0.1 mm 5 mps 761 mmHg 78%
    18:00 +27°C° 0.3 mm 5 mps 761 mmHg 80%
    19:00 +27°C° 0.3 mm 5 mps 762 mmHg 81%
    20:00 +27°C° 0.3 mm 5 mps 762 mmHg 83%
    21:00 +26°C° 0.3 mm 5 mps 762 mmHg 84%
    22:00 +26°C° 0.3 mm 6 mps 762 mmHg 85%
    23:00 +26°C° 0.3 mm 6 mps 762 mmHg 85%
    Show more